EW7329 Weather Reports


time (UTC)temp
C
wind
direction
speed
KPH
gust
KPH
rain 1hr
cm
rain 24hr
cm
rain mn
cm
humidity
%
barometer
mb
20260906023031 13 34 0.0 1.6 0.00 0.36 0.03 96 1016.7
20260906021529 13 42 0.0 0.0 0.00 0.36 0.03 96 1016.6
20260906020027 13 42 1.6 3.2 0.00 0.36 0.03 96 1016.6
20260906014528 13 293 0.0 1.6 0.00 0.36 0.03 96 1016.5
20260906013031 13 293 0.0 1.6 0.00 0.36 0.03 96 1016.4
20260906011522 14 293 0.0 1.6 0.00 0.36 0.03 96 1016.2
20260906010020 14 307 0.0 3.2 0.00 0.36 0.03 96 1016.1
20260906004518 15 47 0.0 3.2 0.00 0.36 0.03 96 1016.1
20260906003016 15 308 0.0 1.6 0.00 0.36 0.03 96 1016.2
20260906001514 15 338 0.0 1.6 0.00 0.36 0.03 96 1016.0
20260906000014 15 338 0.0 1.6 0.00 0.36 0.03 96 1015.9
20260905234511 15 325 0.0 6.4 0.00 0.36 0.03 96 1015.9
20260905233010 15 270 0.0 3.2 0.03 0.36 0.03 96 1015.7
20260905231520 15 288 0.0 1.6 0.03 0.36 0.03 96 1015.7
20260905230008 15 288 0.0 1.6 0.03 0.36 0.03 96 1015.7
20260905224507 15 20 0.0 3.2 0.03 0.36 0.03 96 1015.6
20260905223006 15 167 0.0 3.2 0.00 0.33 0.00 95 1015.5
20260905221506 15 18 0.0 1.6 0.00 0.33 0.00 95 1015.6
20260905220002 16 45 0.0 3.2 0.00 0.33 0.33 95 1015.3
20260905214604 16 12 0.0 1.6 0.00 0.33 0.33 95 1015.3
20260905213059 16 42 0.0 0.0 0.00 0.33 0.33 95 1015.1
20260905211558 16 42 0.0 0.0 0.00 0.33 0.33 95 1015.1
20260905210106 16 42 0.0 1.6 0.00 0.33 0.33 94 1015.1
20260905204557 17 42 0.0 1.6 0.00 0.33 0.33 94 1015.1
20260905203108 17 30 0.0 0.0 0.00 0.33 0.33 94 1014.8
20260905201554 17 32 0.0 4.8 0.00 0.33 0.33 94 1014.7
20260905200056 17 144 1.6 4.8 0.00 0.33 0.33 93 1014.3
20260905194550 17 145 0.0 3.2 0.00 0.33 0.33 93 1014.5
20260905193047 17 100 0.0 1.6 0.00 0.33 0.33 93 1014.2
20260905191546 18 101 0.0 0.0 0.00 0.33 0.33 93 1013.9
20260905190046 18 101 0.0 4.8 0.00 0.33 0.33 92 1013.7
20260905184546 18 134 0.0 0.0 0.00 0.33 0.33 91 1013.5
20260905183040 18 184 0.0 1.6 0.00 0.33 0.33 90 1013.2
20260905181540 19 184 0.0 3.2 0.00 0.33 0.33 89 1013.1
20260905180041 20 156 0.0 1.6 0.00 0.33 0.33 88 1012.9
20260905174539 20 156 0.0 1.6 0.00 0.33 0.33 87 1012.8
20260905173039 21 156 0.0 0.0 0.00 0.33 0.33 84 1012.4
20260905171553 21 137 0.0 1.6 0.00 0.33 0.33 83 1012.3
20260905170037 22 137 0.0 3.2 0.00 0.33 0.33 82 1012.2
20260905164544 22 67 0.0 3.2 0.00 0.33 0.33 80 1012.1
20260905163044 22 119 1.6 3.2 0.00 0.33 0.33 80 1011.8
20260905161535 22 186 0.0 4.8 0.00 0.33 0.33 78 1011.7
20260905160034 22 186 0.0 6.4 0.00 0.33 0.33 78 1011.7
20260905154653 22 182 0.0 4.8 0.00 0.33 0.33 78 1011.6
20260905153033 22 174 3.2 4.8 0.00 0.33 0.33 77 1011.5
20260905151532 22 171 3.2 6.4 0.00 0.33 0.33 80 1011.6
20260905150040 22 159 1.6 8.0 0.00 0.33 0.33 80 1011.5
20260905144535 22 169 3.2 9.7 0.00 0.33 0.33 82 1011.7
20260905143029 21 190 0.0 9.7 0.00 0.33 0.33 85 1011.8
20260905141527 20 188 3.2 11.3 0.00 0.33 0.33 89 1011.7
20260905140029 19 157 4.8 8.0 0.00 0.33 0.33 88 1011.9
20260905134527 18 162 3.2 8.0 0.00 0.33 0.33 90 1011.9
20260905133026 18 171 3.2 9.7 0.00 0.33 0.33 91 1012.1
20260905131535 18 175 4.8 9.7 0.05 0.33 0.33 91 1012.3
20260905130026 18 161 1.6 8.0 0.05 0.33 0.33 91 1012.2
20260905124525 18 186 1.6 9.7 0.10 0.33 0.33 90 1012.2
20260905123034 18 185 4.8 8.0 0.33 0.33 0.33 88 1012.3
20260905121526 18 181 3.2 6.4 0.30 0.30 0.30 87 1012.4
20260905120026 20 250 0.0 11.3 0.28 0.28 0.28 82 1012.6
20260905114523 21 103 1.6 9.7 0.23 0.23 0.23 75 1012.6
20260905113023 22 5 1.6 4.8 0.00 0.00 0.00 62 1012.7
20260905111521 23 96 3.2 11.3 0.00 0.00 0.00 58 1012.1
20260905110016 23 107 4.8 9.7 0.00 0.00 0.00 57 1011.9
20260905104519 23 165 6.4 14.5 0.00 0.00 0.00 57 1011.7
20260905103015 24 131 3.2 12.9 0.00 0.00 0.00 57 1011.8
20260905101513 25 202 6.4 16.1 0.00 0.00 0.00 55 1011.7
20260905100009 23 98 6.4 14.5 0.00 0.00 0.00 59 1011.6
20260905094506 23 188 4.8 14.5 0.00 0.00 0.00 61 1011.7
20260905093004 23 181 4.8 12.9 0.00 0.00 0.00 65 1011.7
20260905091604 22 171 3.2 9.7 0.00 0.00 0.00 73 1011.5
20260905090057 21 188 1.6 6.4 0.00 0.00 0.00 80 1011.4
20260905084603 21 180 0.0 6.4 0.00 0.00 0.00 79 1011.3
20260905083050 20 304 0.0 3.2 0.00 0.00 0.00 81 1011.2
20260905081549 20 169 0.0 4.8 0.00 0.00 0.00 82 1010.7
20260905080059 20 132 0.0 4.8 0.00 0.00 0.00 82 1010.2
20260905074550 20 82 1.6 6.4 0.00 0.00 0.00 85 1009.6
20260905073039 20 98 0.0 3.2 0.00 0.00 0.00 85 1009.1
20260905071542 19 76 0.0 3.2 0.00 0.00 0.00 87 1008.8
20260905070033 18 284 0.0 3.2 0.00 0.00 0.00 87 1008.5
20260905064530 17 284 0.0 1.6 0.00 0.00 0.00 88 1008.3
20260905063030 17 284 0.0 1.6 0.00 0.00 0.00 89 1008.3
20260905061540 17 284 0.0 3.2 0.00 0.00 0.00 92 1008.2
20260905060048 17 284 0.0 1.6 0.00 0.00 0.00 93 1008.0
20260905054534 16 284 0.0 0.0 0.00 0.00 0.00 93 1007.9
20260905053024 16 284 0.0 4.8 0.00 0.00 0.00 93 1007.6
20260905051530 15 273 0.0 3.2 0.00 0.00 0.00 92 1007.3
20260905050020 15 273 0.0 3.2 0.00 0.00 0.00 91 1007.3
20260905044519 15 273 0.0 1.6 0.00 0.00 0.00 91 1007.1
20260905043019 15 49 1.6 4.8 0.00 0.00 0.00 92 1006.9
20260905041514 15 293 0.0 3.2 0.00 0.00 0.00 91 1006.7
20260905040017 15 338 0.0 3.2 0.00 0.00 0.00 90 1006.6
20260905034513 16 32 1.6 4.8 0.00 0.00 0.00 90 1006.4
20260905033009 16 25 0.0 1.6 0.00 0.00 0.00 90 1006.3
20260905031514 16 343 0.0 4.8 0.00 0.00 0.00 90 1006.1
20260905030007 16 69 0.0 0.0 0.00 0.00 0.00 90 1006.0
20260905024506 16 69 0.0 4.8 0.00 0.00 0.00 90 1006.0